Tiempo cada hora Dabek

Hoy, 18 Junio, Viernes

Tiempo Temperatura Precipitaciones Viento Presión Humedad
00:00 +16°C° 0 mm 3 mps 753 mmHg 85%
01:00 +16°C° 0 mm 3 mps 753 mmHg 89%
02:00 +16°C° 0 mm 3 mps 753 mmHg 89%
03:00 +14°C° 0 mm 3 mps 753 mmHg 88%
04:00 +14°C° 0 mm 3 mps 753 mmHg 88%
05:00 +17°C° 0 mm 3 mps 753 mmHg 83%
06:00 +19°C° 0 mm 3 mps 753 mmHg 78%
07:00 +21°C° 0 mm 3 mps 753 mmHg 73%
08:00 +23°C° 0 mm 4 mps 753 mmHg 69%
09:00 +25°C° 0 mm 4 mps 753 mmHg 65%
10:00 +27°C° 0 mm 5 mps 753 mmHg 61%
11:00 +27°C° 0 mm 5 mps 752 mmHg 58%
12:00 +28°C° 0 mm 5 mps 752 mmHg 55%
13:00 +29°C° 0 mm 5 mps 752 mmHg 52%
14:00 +29°C° 0 mm 5 mps 752 mmHg 54%
15:00 +29°C° 0 mm 4 mps 752 mmHg 55%
16:00 +29°C° 0 mm 4 mps 751 mmHg 57%
17:00 +28°C° 0 mm 4 mps 751 mmHg 63%
18:00 +26°C° 0 mm 3 mps 751 mmHg 70%
19:00 +25°C° 0 mm 3 mps 751 mmHg 76%
20:00 +22°C° 0 mm 3 mps 751 mmHg 79%
21:00 +21°C° 0 mm 3 mps 752 mmHg 81%
22:00 +20°C° 0 mm 3 mps 752 mmHg 84%
23:00 +19°C° 0 mm 3 mps 752 mmHg 86%

Mañana, 19 Junio, Sábado

Tiempo Temperatura Precipitaciones Viento Presión Humedad
00:00 +18°C° 0 mm 3 mps 752 mmHg 88%
01:00 +18°C° 0 mm 3 mps 752 mmHg 90%
02:00 +18°C° 0 mm 3 mps 752 mmHg 91%
03:00 +17°C° 0 mm 3 mps 752 mmHg 91%
04:00 +17°C° 0 mm 3 mps 751 mmHg 92%
05:00 +19°C° 0 mm 3 mps 751 mmHg 86%
06:00 +20°C° 0 mm 3 mps 752 mmHg 79%
07:00 +22°C° 0 mm 4 mps 752 mmHg 73%
08:00 +23°C° 0 mm 4 mps 751 mmHg 69%
09:00 +26°C° 0 mm 4 mps 751 mmHg 66%
10:00 +27°C° 0 mm 4 mps 751 mmHg 62%
11:00 +28°C° 0 mm 4 mps 751 mmHg 59%
12:00 +29°C° 0 mm 4 mps 751 mmHg 56%
13:00 +30°C° 0 mm 4 mps 750 mmHg 53%
14:00 +30°C° 0 mm 4 mps 750 mmHg 54%
15:00 +30°C° 0 mm 4 mps 750 mmHg 56%
16:00 +30°C° 0 mm 4 mps 750 mmHg 58%
17:00 +28°C° 0 mm 4 mps 750 mmHg 64%
18:00 +27°C° 0 mm 4 mps 749 mmHg 70%
19:00 +25°C° 0 mm 3 mps 749 mmHg 75%
20:00 +24°C° 0 mm 3 mps 749 mmHg 78%
21:00 +22°C° 0 mm 3 mps 750 mmHg 81%
22:00 +21°C° 0 mm 3 mps 750 mmHg 84%
23:00 +20°C° 0 mm 3 mps 750 mmHg 87%

Pasado mañana, 20 Junio, Domingo

Tiempo Temperatura Precipitaciones Viento Presión Humedad
00:00 +20°C° 0 mm 3 mps 750 mmHg 89%
01:00 +19°C° 0 mm 2 mps 750 mmHg 91%
02:00 +19°C° 0 mm 3 mps 750 mmHg 92%
03:00 +19°C° 0 mm 3 mps 750 mmHg 93%
04:00 +18°C° 0 mm 3 mps 749 mmHg 93%
05:00 +20°C° 0 mm 3 mps 749 mmHg 87%
06:00 +21°C° 0 mm 4 mps 749 mmHg 81%
07:00 +23°C° 0 mm 5 mps 749 mmHg 76%
08:00 +25°C° 0 mm 5 mps 749 mmHg 71%
09:00 +26°C° 0 mm 5 mps 749 mmHg 66%
10:00 +27°C° 0 mm 5 mps 749 mmHg 62%
11:00 +28°C° 0 mm 5 mps 749 mmHg 59%
12:00 +28°C° 0 mm 5 mps 748 mmHg 57%
13:00 +29°C° 0 mm 5 mps 748 mmHg 54%
14:00 +29°C° 0 mm 5 mps 747 mmHg 57%
15:00 +28°C° 0 mm 5 mps 747 mmHg 59%
16:00 +28°C° 0 mm 5 mps 747 mmHg 62%
17:00 +27°C° 0.1 mm 5 mps 747 mmHg 67%
18:00 +26°C° 0.1 mm 4 mps 746 mmHg 72%
19:00 +25°C° 0.1 mm 4 mps 746 mmHg 77%
20:00 +23°C° 0 mm 4 mps 746 mmHg 80%
21:00 +21°C° 0 mm 4 mps 746 mmHg 83%
22:00 +20°C° 0 mm 3 mps 746 mmHg 86%
23:00 +20°C° 0 mm 3 mps 746 mmHg 88%

21 Junio, Lunes

Tiempo Temperatura Precipitaciones Viento Presión Humedad
00:00 +19°C° 0 mm 3 mps 746 mmHg 90%
01:00 +19°C° 0 mm 3 mps 746 mmHg 91%
02:00 +19°C° 0 mm 3 mps 746 mmHg 92%
03:00 +19°C° 0 mm 3 mps 745 mmHg 93%
04:00 +19°C° 0 mm 4 mps 745 mmHg 94%
05:00 +20°C° 0 mm 4 mps 745 mmHg 88%
06:00 +22°C° 0 mm 5 mps 745 mmHg 82%
07:00 +23°C° 0 mm 5 mps 745 mmHg 76%
08:00 +24°C° 0 mm 6 mps 745 mmHg 70%
09:00 +27°C° 0 mm 6 mps 745 mmHg 64%
10:00 +28°C° 0 mm 6 mps 745 mmHg 58%
11:00 +29°C° 0 mm 6 mps 745 mmHg 55%
12:00 +29°C° 0 mm 6 mps 745 mmHg 52%
13:00 +30°C° 0 mm 5 mps 745 mmHg 49%
14:00 +30°C° 0 mm 5 mps 744 mmHg 51%
15:00 +30°C° 0 mm 4 mps 744 mmHg 53%
16:00 +30°C° 0 mm 4 mps 744 mmHg 54%
17:00 +28°C° 0.1 mm 4 mps 744 mmHg 61%
18:00 +27°C° 0.1 mm 4 mps 744 mmHg 68%
19:00 +25°C° 0.1 mm 4 mps 744 mmHg 76%
20:00 +24°C° 0.2 mm 3 mps 744 mmHg 79%
21:00 +23°C° 0.2 mm 2 mps 744 mmHg 83%
22:00 +21°C° 0.2 mm 2 mps 744 mmHg 87%
23:00 +20°C° 0.1 mm 2 mps 744 mmHg 88%

22 Junio, Martes

Tiempo Temperatura Precipitaciones Viento Presión Humedad
00:00 +20°C° 0.1 mm 2 mps 744 mmHg 89%
01:00 +20°C° 0.1 mm 2 mps 744 mmHg 90%
02:00 +20°C° 0 mm 2 mps 744 mmHg 90%
03:00 +21°C° 0 mm 1 mps 744 mmHg 91%
04:00 +21°C° 0 mm 1 mps 744 mmHg 91%
05:00 +22°C° 0.1 mm 1 mps 744 mmHg 88%
06:00 +23°C° 0.1 mm 1 mps 744 mmHg 85%
07:00 +24°C° 0.1 mm 1 mps 745 mmHg 82%
08:00 +25°C° 0.5 mm 1 mps 745 mmHg 78%
09:00 +26°C° 0.5 mm 1 mps 745 mmHg 75%
10:00 +26°C° 0.5 mm 1 mps 745 mmHg 72%
11:00 +27°C° 0.6 mm 1 mps 745 mmHg 71%
12:00 +27°C° 0.6 mm 1 mps 745 mmHg 70%
13:00 +27°C° 0.6 mm 2 mps 745 mmHg 69%
14:00 +27°C° 0.5 mm 2 mps 745 mmHg 72%
15:00 +27°C° 0.5 mm 3 mps 745 mmHg 74%
16:00 +26°C° 0.5 mm 4 mps 745 mmHg 76%
17:00 +25°C° 1.2 mm 3 mps 745 mmHg 81%
18:00 +24°C° 1.2 mm 3 mps 745 mmHg 86%
19:00 +23°C° 1.2 mm 2 mps 745 mmHg 91%
20:00 +21°C° 0.4 mm 2 mps 746 mmHg 93%
21:00 +20°C° 0.4 mm 3 mps 746 mmHg 94%
22:00 +19°C° 0.4 mm 3 mps 746 mmHg 96%
23:00 +19°C° 0 mm 3 mps 746 mmHg 96%

23 Junio, Miércoles

Tiempo Temperatura Precipitaciones Viento Presión Humedad
00:00 +19°C° 0 mm 3 mps 746 mmHg 97%
01:00 +18°C° 0 mm 2 mps 746 mmHg 97%
02:00 +18°C° 0 mm 3 mps 745 mmHg 97%
03:00 +18°C° 0 mm 3 mps 745 mmHg 98%
04:00 +18°C° 0 mm 3 mps 745 mmHg 98%
05:00 +19°C° 0 mm 3 mps 745 mmHg 95%
06:00 +20°C° 0 mm 3 mps 745 mmHg 91%
07:00 +21°C° 0 mm 3 mps 745 mmHg 88%
08:00 +24°C° 0 mm 3 mps 745 mmHg 82%
09:00 +26°C° 0 mm 3 mps 744 mmHg 76%
10:00 +27°C° 0 mm 3 mps 744 mmHg 70%
11:00 +28°C° 0.2 mm 3 mps 744 mmHg 67%
12:00 +28°C° 0.2 mm 3 mps 743 mmHg 65%
13:00 +29°C° 0.2 mm 4 mps 743 mmHg 63%
14:00 +28°C° 0.7 mm 5 mps 743 mmHg 67%
15:00 +27°C° 0.7 mm 6 mps 743 mmHg 72%
16:00 +26°C° 0.7 mm 7 mps 743 mmHg 76%
17:00 +23°C° 0 mm 7 mps 743 mmHg 79%
18:00 +20°C° 0 mm 8 mps 744 mmHg 81%
19:00 +16°C° 0 mm 9 mps 744 mmHg 84%
20:00 +15°C° 0 mm 9 mps 745 mmHg 81%
21:00 +13°C° 0 mm 8 mps 746 mmHg 79%
22:00 +12°C° 0 mm 8 mps 747 mmHg 76%
23:00 +12°C° 0 mm 8 mps 748 mmHg 75%
Mostrar más

Necesitamos Su Consentimiento

Meteoprog y nuestros Proveedores de Servicios pueden almacenar y acceder a sus datos personales como cookies, identificadores de dispositivo u otras tecnologías similares de su dispositivo y procesar dichos datos para personalizar contenido y anuncios, además de ofrecer funciones de redes sociales y analizar el tráfico.

  • Almacenar y/o acceder a información en su dispositivo

    Se puede almacenar o acceder a cookies, identificadores de dispositivo u otra información de su dispositivo para los fines anteriormente indicados.

  • Anuncios y contenido personalizados, medición de anuncios y contenido, percepciones del público, y desarrollo de productos

    Los anuncios y el contenido pueden personalizarse en base a su perfil. Se pueden añadir más datos para personalizar mejor los anuncios y contenidos. Se puede medir el rendimiento de los anuncios y contenidos. Se puede obtener la percepción sobre el público que ha visto los anuncios y contenidos. Dichos datos pueden usarse para desarrollar o mejorar la experiencia del usuario, sistemas y software.

Al hacer clic en ‘Estoy De Acuerdo’ usted permitirá el uso de las cookies, identificadores de dispositivo, balizas web u otras tecnologías similares indicadas. Su configuración puede cambiarse desde el navegador de su dispositivo.

Para ciertos fines, los intereses legítimos pueden ser considerados por encima del consentimiento. Puede leer más sobre ello en nuestra Política de Privacidad y Cookies.